Weather History for KWLD - May, 2013

Change the Weather History Date:

Sunday, May 26, 2013

  Actual Average Record
Temperature  
Mean Temperature 74 °F -  
Max Temperature 82 °F 80 °F 91 °F (2006)
Min Temperature 66 °F 57 °F 43 °F (2001)
Cooling Degree Days 9    
Growing Degree Days 24 (Base 50)    
Moisture  
Dew Point 68 °F    
Average Humidity 83    
Maximum Humidity 96    
Minimum Humidity 69    
Precipitation  
Precipitation 0.00 in - - ()
Sea Level Pressure  
Sea Level Pressure 29.94 in    
Wind  
Wind Speed 13 mph (SSE)    
Max Wind Speed 21 mph    
Max Gust Speed 31 mph    
Visibility 10 miles    
Events      
Averages and records for this station are not official NWS values.
T = Trace of Precipitation, MM = Missing Value Source: NWS Daily Summary

Daily Weather History Graph

Daily Weather History Graph

Search for Another Location

Airport or City:

Trip Planner

Search our weather history database for the weather conditions in past years. The results will help you decide how hot, cold, wet, or windy it might be!

Date:

Astronomy

May. 26, 2013 Rise Set
Actual Time 6:12 AM CDT 8:38 PM CDT
Civil Twilight 5:42 AM CDT 9:08 PM CDT
Nautical Twilight 5:05 AM CDT 9:45 PM CDT
Astronomical Twilight 4:24 AM CDT 10:26 PM CDT
Moon 10:28 PM CDT (5/26) 7:42 AM CDT (5/26)
Length of Visible Light 15h 26m
Length of Day
14h 26m
Waning Gibbous, 96% of the Moon is Illuminated
May 26
Waning Gibbous
May 31
Last Quarter
Jun 8
New
Jun 16
First Quarter
Jun 23
Full

Hourly Weather History & Observations

Time (CDT) Temp. Heat Index Dew Point Humidity Pressure Visibility Wind Dir Wind Speed Gust Speed Precip Events Conditions
12:54 AM 68.0 °F - 66.9 °F 96% 30.01 in 9.0 mi SSE 8.1 mph - N/A   Clear
1:54 AM 69.1 °F - 66.0 °F 90% 30.01 in 10.0 mi South 13.8 mph - N/A   Clear
2:54 AM 69.1 °F - 64.9 °F 87% 29.99 in 10.0 mi SSE 13.8 mph - N/A   Clear
3:54 AM 68.0 °F - 64.9 °F 90% 29.98 in 10.0 mi SSE 13.8 mph - N/A   Clear
4:54 AM 68.0 °F - 64.9 °F 90% 29.97 in 10.0 mi SSE 10.4 mph - N/A   Clear
5:54 AM 66.9 °F - 64.9 °F 93% 29.98 in 10.0 mi SSE 10.4 mph - N/A   Clear
6:54 AM 68.0 °F - 66.0 °F 93% 29.97 in 9.0 mi SSE 9.2 mph - N/A   Scattered Clouds
7:54 AM 69.1 °F - 66.9 °F 93% 29.98 in 9.0 mi South 15.0 mph 20.7 mph N/A   Overcast
8:04 AM 69.8 °F - 66.2 °F 88% 30.01 in 9.0 mi South 13.8 mph 21.9 mph N/A   Overcast
8:54 AM 71.1 °F - 68.0 °F 90% 29.98 in 9.0 mi South 15.0 mph 25.3 mph N/A   Overcast
10:54 AM 73.0 °F - 69.1 °F 87% 29.97 in 9.0 mi South 15.0 mph 25.3 mph N/A   Overcast
11:02 AM 73.4 °F - 69.8 °F 88% 30.00 in 10.0 mi South 16.1 mph 23.0 mph N/A   Overcast
12:54 PM 75.0 °F - 70.0 °F 84% 29.97 in 10.0 mi SSE 17.3 mph 24.2 mph N/A   Overcast
1:54 PM 78.1 °F - 70.0 °F 76% 29.95 in 10.0 mi South 16.1 mph 25.3 mph N/A   Overcast
2:31 PM 78.8 °F - 71.6 °F 78% 29.97 in 10.0 mi South 12.7 mph 23.0 mph N/A   Overcast
2:54 PM 79.0 °F - 71.1 °F 77% 29.93 in 10.0 mi South 15.0 mph 27.6 mph N/A   Overcast
3:05 PM 78.8 °F - 71.6 °F 78% 29.95 in 10.0 mi South 20.7 mph 26.5 mph N/A   Mostly Cloudy
3:54 PM 82.0 °F 86.3 °F 71.1 °F 69% 29.91 in 10.0 mi South 19.6 mph 28.8 mph N/A   Mostly Cloudy
4:54 PM 81.0 °F 84.4 °F 70.0 °F 69% 29.88 in 10.0 mi South 20.7 mph 31.1 mph N/A   Scattered Clouds
5:54 PM 81.0 °F 84.4 °F 70.0 °F 69% 29.87 in 10.0 mi South 17.3 mph 21.9 mph N/A   Partly Cloudy
6:54 PM 80.1 °F 82.9 °F 69.1 °F 69% 29.87 in 10.0 mi South 13.8 mph 24.2 mph N/A   Partly Cloudy
7:54 PM 79.0 °F - 70.0 °F 74% 29.88 in 10.0 mi South 12.7 mph 20.7 mph N/A   Scattered Clouds
8:54 PM 75.9 °F - 69.1 °F 79% 29.87 in 10.0 mi SSE 10.4 mph - N/A   Clear
9:54 PM 75.0 °F - 69.1 °F 82% 29.87 in 10.0 mi SSE 12.7 mph - N/A   Clear
10:54 PM 73.0 °F - 69.1 °F 87% 29.88 in 10.0 mi SSE 15.0 mph 21.9 mph N/A   Clear
11:54 PM 73.0 °F - 69.1 °F 87% 29.87 in 10.0 mi SSE 15.0 mph - N/A   Clear